Regional Weather Roundup
Issued by NWS

Home | Current Version | Previous Version | Text Only | Print | Product List | Glossary Off
Versions: 1 2 3 4 5 6 7 8 9 10 11 12 13 14 15 16 17 18 19 20 21 22 23 24 25 26 27 28 29 30 31 32 33 34 35 36 37 38 39 40 41 42 43 44 45 46 47 48 49 50

000
ASUS43 KMPX 021401
RWRMN
WEATHER ROUNDUP FOR MINNESOTA
NATIONAL WEATHER SERVICE TWIN CITIES/CHANHASSEN MN
900 AM CDT TUE SEP 02 2014


NOTE: "FAIR" INDICATES FEW OR NO CLOUDS BELOW 12,000 FEET WITH NO
SIGNIFICANT WEATHER AND/OR OBSTRUCTIONS TO VISIBILITY. N/A MEANS
CURRENT SKY AND/OR WEATHER CONDITIONS ARE NOT AVAILABLE.

MNZ060>063-068>070-021500-
   Twin Cities Metro

CITY           SKY/WX    TMP DP  RH WIND       PRES   REMARKS
TWIN CITIES    MOSUNNY   65  58  78 W6        29.88S
ST PAUL        SUNNY     65  59  81 W6        29.89R
CRYSTAL        SUNNY     66  57  72 W6        29.87R
LAKEVILLE      SUNNY     64  57  77 W7        29.89R
EDEN PRAIRIE   SUNNY     65  58  78 W5        29.88R
SOUTH ST PAUL  SUNNY     66  58  75 W6        29.88S
LAKE ELMO      FAIR      64  61  88 W5        29.89R
$$
MNZ001>005-007-008-013>017-022>024-027-028-021500-
   Northwest Minnesota

CITY           SKY/WX    TMP DP  RH WIND       PRES   REMARKS
BEMIDJI        SUNNY     59  52  78 SW7       29.81S
HALLOCK        PTSUNNY   54  52  94 S9        29.76S
ROSEAU         SUNNY     55  52  88 SW7       29.76S
WARROAD        SUNNY     55  52  88 SW3       29.76S
THIEF RVR FALL PTSUNNY   54  50  87 SW7       29.80S
CROOKSTON      MOSUNNY   55  52  88 S5        29.80S
FOSSTON        MOSUNNY   54  52  94 S8        29.83R
DETROIT LAKES  SUNNY     59  54  82 SW5       29.86R
MOORHEAD       SUNNY     57  55  94 SW5       29.84S
PARK RAPIDS    MOSUNNY   59  56  89 W5        29.85R
MAHNOMEN       FAIR      55  52  90 SW9       29.83R
$$
MNZ006-009>011-018-025>026-021500-
   North Central Minnesota

CITY           SKY/WX    TMP DP  RH WIND       PRES   REMARKS
BAUDETTE       SUNNY     56  51  84 SW6       29.76R
FLAG ISLAND    SUNNY     55  50  82 CALM      29.73S
INTL FALLS     MOSUNNY   56  53  90 W5        29.77S
WASKISH        SUNNY     61  55  82 SW10      29.79R
BIG FORK       SUNNY     57  55  94 SW7       29.80F
LONGVILLE      SUNNY     61  55  82 SW5       29.83S
GRAND RAPIDS   SUNNY     61  52  72 SW6       29.83S
CRANE LAKE     PTSUNNY   55  54  94 CALM      29.79S
ORR            MOSUNNY   55  50  82 CALM      29.77F
COOK           MOSUNNY   57  54  88 SW5       29.80S
WALKER         FAIR      61  53  74 W8        29.83R
$$
MNZ012-019>021-037-021500-
   Northeast Minnesota

CITY           SKY/WX    TMP DP  RH WIND       PRES   REMARKS
DULUTH         SUNNY     63  52  67 W8        29.83S
ELY            SUNNY     57  52  82 W3        29.80S
HIBBING        MOSUNNY   56  53  90 SW3       29.83R
EVELETH        SUNNY     52  52 100 W3        29.83S
DULUTH HARBOR  SUNNY     61  55  82 SW8       29.83S
TWO HARBORS    SUNNY     61  52  72 W6        29.80S
SILVER BAY     SUNNY     61  57  88 CALM      29.79S
GRAND MARAIS     N/A     62  55  77 SW12      29.76S
G MARAIS ARPRT SUNNY     61  48  63 W6        29.80R
$$
MNZ029>031-032-039>041-046>048-054>057-064-021500-
   West Central Minnesota

CITY           SKY/WX    TMP DP  RH WIND       PRES   REMARKS
FERGUS FALLS   SUNNY     59  55  88 SW3       29.87S
WHEATON        SUNNY     61  55  82 SW5       29.88S
MORRIS         SUNNY     64  57  77 SW3       29.87S
ALEXANDRIA     SUNNY     62  56  80 SW5       29.89S
ELBOW LAKE     FAIR      60  56  88 SW3       29.87S
WADENA         MOSUNNY   57  55  94 SW3       29.86R
GLENWOOD       SUNNY     63  57  82 SW3       29.89S
APPLETON       SUNNY     61  57  88 SW5       29.88S
BENSON         SUNNY     61  57  88 CALM      29.89S
ORTONVILLE     SUNNY     61  54  77 W3        29.88S
MADISON        SUNNY     64  57  77 W3        29.89S
WILLMAR        FAIR      61  57  88 CALM      29.91S
$$
MNZ033>034-036-042>043-049>051-058-059-021500-
   Central Minnesota

CITY           SKY/WX    TMP DP  RH WIND       PRES   REMARKS
ST CLOUD       SUNNY     66  57  72 W3        29.88R
SAUK CENTRE    FAIR      59  55  88 CALM      29.89S
PAYNESVILLE    HVY RAIN  60  56  87 SW7       29.90S
AITKIN         SUNNY     63  55  77 CALM      29.84S
PINE RIVER     SUNNY     59  55  88 CALM      29.89R
BRAINERD       SUNNY     59  55  87 SW8       29.87R
STAPLES        SUNNY     57  55  94 CALM      29.86S
LONG PRAIRIE   FAIR      61  55  82 SW7       29.89R
LITTLE FALLS   SUNNY     59  55  88 CALM      29.88R
LITCHFIELD     SUNNY     64  61  88 W3        29.91R
BUFFALO        SUNNY     62  57  83 SW3       29.90R
MAPLE LAKE     SUNNY     64  59  84 W5        29.90R
$$
MNZ037-044-045-052-053-021500-
   East Central Minnesota

CITY           SKY/WX    TMP DP  RH WIND       PRES   REMARKS
PRINCETON      SUNNY     63  57  82 W3        29.88R
MORA           SUNNY     61  52  72 NW3       29.88S
CAMBRIDGE      SUNNY     64  54  68 CALM      29.86R
RUSH CITY      SUNNY     62  57  84 CALM      29.87S
MOOSE LAKE     SUNNY     59  54  82 CALM      29.84S
HINCKLEY       FAIR      59  57  94 CALM      29.86S
CLOQUET        SUNNY     61  52  72 W7        29.84S
MCGREGOR       SUNNY     59  55  88 CALM      29.86S
$$
MNZ071>073-080-081-089-090-097-098-021500-
   Southwest Minnesota

CITY           SKY/WX    TMP DP  RH WIND       PRES   REMARKS
MONTEVIDEO     SUNNY     64  61  88 W6        29.91S
GRANITE FALLS  SUNNY     60  57  89 W6        29.92S
CANBY          SUNNY     64  56  75 W8        29.91S
MARSHALL       SUNNY     64  55  72 W5        29.91R
REDWOOD FALLS  SUNNY     64  56  75 NW6       29.91R
OLIVIA         SUNNY     61  55  82 W3        29.90R
PIPESTONE      SUNNY     61  55  82 W3        29.93S
WINDOM         SUNNY     63  55  77 W8        29.94R
WORTHINGTON    SUNNY     61  55  82 W7        29.96R
JACKSON        SUNNY     63  55  77 W7        29.94R
TRACY          MOSUNNY   64  57  79 W5        29.92S
SLAYTON        PTSUNNY   60  55  82 CALM      29.94S
$$
MNZ065>067-074>077-082>085-091>093-021500-
   South Central Minnesota

CITY           SKY/WX    TMP DP  RH WIND       PRES   REMARKS
MANKATO        SUNNY     63  55  77 CALM      29.90S
NEW ULM        SUNNY     63  59  88 W6        29.91R
ST JAMES       SUNNY     66  57  72 SW5       29.93R
FAIRMONT       SUNNY     64  54  68 W8        29.93R
GLENCOE        SUNNY     63  56  78 W5        29.90S
FARIBAULT      SUNNY     68  55  64 SW6       29.90R
OWATONNA       PTSUNNY   64  57  77 W8        29.91S
WASECA         MOSUNNY   59  54  82 SW5       29.93S
ALBERT LEA     SUNNY     64  57  77 W5        29.92R
$$
MNZ078>079-086>088-094>096-021500-
   Southeast Minnesota

CITY           SKY/WX    TMP DP  RH WIND       PRES   REMARKS
ROCHESTER      PTSUNNY   61  56  83 SW7       29.91R
RED WING       MOSUNNY   66  61  82 W8        29.87S
STANTON        SUNNY     65  58  76 W5        29.88S
DODGE CENTER   SUNNY     63  59  88 SW12      29.91R
WINONA         PTSUNNY   63  57  82 S3        29.89S
AUSTIN         SUNNY     63  59  88 SW3       29.91R
PRESTON        PTSUNNY   61  60  97 CALM      29.92S
$$
ABBREVIATIONS USED IN REMARKS
   TC - TEMPERATURES IN CELSIUS
  WCI - WIND CHILL INDEX
   HX - HEAT INDEX
  VSB - VISIBILITY
$$



USA.gov is the U.S. government's official web portal to all federal, state and local government web resources and services.